This is the latest recevied weather packets stored in our database for station/object KD7AWQ. If no packets are shown the sender has not sent any weather packets the latest 10 day(s).
| Time | Temp. | Humidity | Pressure | Rain* | Wind** | Luminosity | Snow |
|---|---|---|---|---|---|---|---|
| 1777400699 | 21.67° C | 19% | 1186.4 hPa | 0 mm | - | 1042 W/m² | - |
| 1777400397 | 21.67° C | 19% | 1186.6 hPa | 0 mm | - | 991 W/m² | - |
| 1777400097 | 21.11° C | 19% | 1186.6 hPa | 0 mm | - | 1041 W/m² | - |
| 1777399795 | 21.11° C | 19% | 1186.7 hPa | 0 mm | - | 1008 W/m² | - |
| 1777399492 | 21.67° C | 19% | 1186.7 hPa | 0 mm | - | 1029 W/m² | - |
| 1777399189 | 21.67° C | 19% | 1186.9 hPa | 0 mm | - | 1017 W/m² | - |
| 1777398886 | 21.11° C | 19% | 1186.7 hPa | 0 mm | - | 966 W/m² | - |
| 1777398583 | 20.56° C | 20% | 1186.5 hPa | 0 mm | - | 920 W/m² | - |
| 1777398279 | 20.56° C | 20% | 1186.7 hPa | 0 mm | - | 794 W/m² | - |
| 1777397977 | 20.56° C | 20% | 1187 hPa | 0 mm | - | 841 W/m² | - |
| 1777397673 | 20.56° C | 21% | 1186.9 hPa | 0 mm | - | 977 W/m² | - |
| 1777397369 | 20.56° C | 21% | 1186.9 hPa | 0 mm | - | 828 W/m² | - |
| 1777397066 | 20° C | 21% | 1187 hPa | 0 mm | - | 940 W/m² | - |
| 1777396762 | 20.56° C | 22% | 1186.9 hPa | 0 mm | - | 893 W/m² | - |
| 1777396459 | 20° C | 21% | 1187 hPa | 0 mm | - | 804 W/m² | - |
| 1777396156 | 20° C | 22% | 1186.7 hPa | 0 mm | - | 901 W/m² | - |
| 1777395852 | 19.44° C | 22% | 1187 hPa | 0 mm | - | 884 W/m² | - |
| 1777395547 | 18.89° C | 23% | 1186.9 hPa | 0 mm | - | 877 W/m² | - |
| 1777395244 | 18.89° C | 23% | 1187.2 hPa | 0 mm | - | 831 W/m² | - |
| 1777394942 | 18.89° C | 23% | 1187.2 hPa | 0 mm | - | 823 W/m² | - |
| 1777394637 | 19.44° C | 23% | 1187.2 hPa | 0 mm | - | 844 W/m² | - |
| 1777394334 | 19.44° C | 23% | 1186.7 hPa | 0 mm | - | 664 W/m² | - |
| 1777394025 | 18.89° C | 23% | 1187.1 hPa | 0 mm | - | 810 W/m² | - |
| 1777393725 | 18.33° C | 24% | 1187 hPa | 0 mm | - | 731 W/m² | - |
| 1777393420 | 18.33° C | 24% | 1187 hPa | 0 mm | - | 709 W/m² | - |
* Rain latest hour (hover to see other rain measurements)
** Current wind speed in m/s (hover to see current wind gust speed)